When you browse on this site, cookies collect data to enhance your experience and personalize the content and advertising you see.
Visit our Privacy Policy to learn more. By continuing to use the site, you agree to this use of cookies and data.
  • en Suisse
  • Liste des pays
  • À 7 jours
  • Température de l'eau
  • Carte satellitaire
  • Carte météo
  • Widgets météo
  • user-avatar
    Se connecter

    Météo par heure à Nepomacinovka

    Ce jour, 23 Janvier, Mercredi

    Heure Température Précipitation Vent Pression Humidité
    00:00 -7°C° 0 mm 2 m/s 745 mmHg 92%
    01:00 -8°C° 0 mm 2 m/s 745 mmHg 92%
    02:00 -9°C° 0 mm 2 m/s 745 mmHg 93%
    03:00 -9°C° 0 mm 2 m/s 744 mmHg 93%
    04:00 -9°C° 0 mm 2 m/s 744 mmHg 93%
    05:00 -12°C° 0 mm 3 m/s 743 mmHg 93%
    06:00 -12°C° 0 mm 3 m/s 743 mmHg 93%
    07:00 -12°C° 0 mm 3 m/s 743 mmHg 93%
    08:00 -13°C° 0 mm 3 m/s 743 mmHg 94%
    09:00 -12°C° 0 mm 3 m/s 743 mmHg 93%
    10:00 -12°C° 0 mm 3 m/s 743 mmHg 91%
    11:00 -10°C° 0 mm 3 m/s 743 mmHg 90%
    12:00 -10°C° 0 mm 3 m/s 743 mmHg 88%
    13:00 -9°C° 0 mm 3 m/s 742 mmHg 87%
    14:00 -9°C° 0 mm 3 m/s 742 mmHg 85%
    15:00 -9°C° 0 mm 3 m/s 742 mmHg 85%
    16:00 -9°C° 0 mm 3 m/s 742 mmHg 86%
    17:00 -9°C° 0 mm 3 m/s 742 mmHg 86%
    18:00 -9°C° 0 mm 3 m/s 742 mmHg 87%
    19:00 -9°C° 0 mm 3 m/s 742 mmHg 88%
    20:00 -10°C° 0 mm 3 m/s 742 mmHg 89%
    21:00 -10°C° 0 mm 3 m/s 742 mmHg 90%
    22:00 -10°C° 0 mm 3 m/s 743 mmHg 91%
    23:00 -12°C° 0 mm 3 m/s 743 mmHg 92%

    Demain, 24 Janvier, Jeudi

    Heure Température Précipitation Vent Pression Humidité
    00:00 -12°C° 0 mm 3 m/s 743 mmHg 92%
    01:00 -12°C° 0 mm 3 m/s 743 mmHg 92%
    02:00 -12°C° 0 mm 3 m/s 743 mmHg 93%
    03:00 -12°C° 0 mm 3 m/s 743 mmHg 93%
    04:00 -12°C° 0 mm 3 m/s 744 mmHg 93%
    05:00 -13°C° 0 mm 3 m/s 744 mmHg 93%
    06:00 -13°C° 0 mm 3 m/s 744 mmHg 93%
    07:00 -13°C° 0 mm 3 m/s 744 mmHg 93%
    08:00 -13°C° 0 mm 3 m/s 744 mmHg 93%
    09:00 -12°C° 0 mm 3 m/s 745 mmHg 91%
    10:00 -12°C° 0 mm 3 m/s 745 mmHg 90%
    11:00 -10°C° 0 mm 3 m/s 745 mmHg 89%
    12:00 -10°C° 0 mm 3 m/s 745 mmHg 87%
    13:00 -9°C° 0 mm 3 m/s 745 mmHg 86%
    14:00 -9°C° 0 mm 3 m/s 745 mmHg 85%
    15:00 -9°C° 0 mm 3 m/s 746 mmHg 86%
    16:00 -10°C° 0 mm 3 m/s 746 mmHg 87%
    17:00 -11°C° 0 mm 4 m/s 746 mmHg 88%
    18:00 -11°C° 0 mm 4 m/s 746 mmHg 89%
    19:00 -11°C° 0 mm 4 m/s 746 mmHg 89%
    20:00 -12°C° 0 mm 4 m/s 746 mmHg 89%
    21:00 -12°C° 0 mm 4 m/s 746 mmHg 89%
    22:00 -12°C° 0 mm 4 m/s 746 mmHg 89%
    23:00 -12°C° 0 mm 4 m/s 747 mmHg 89%

    Après-demain, 25 Janvier, Vendredi

    Heure Température Précipitation Vent Pression Humidité
    00:00 -12°C° 0 mm 4 m/s 747 mmHg 89%
    01:00 -12°C° 0 mm 4 m/s 747 mmHg 89%
    02:00 -12°C° 0 mm 4 m/s 747 mmHg 89%
    03:00 -12°C° 0 mm 4 m/s 746 mmHg 89%
    04:00 -12°C° 0 mm 4 m/s 746 mmHg 89%
    05:00 -12°C° 0 mm 4 m/s 746 mmHg 89%
    06:00 -14°C° 0 mm 4 m/s 746 mmHg 90%
    07:00 -14°C° 0 mm 4 m/s 746 mmHg 90%
    08:00 -14°C° 0 mm 4 m/s 746 mmHg 90%
    09:00 -14°C° 0 mm 4 m/s 746 mmHg 89%
    10:00 -14°C° 0 mm 4 m/s 746 mmHg 88%
    11:00 -12°C° 0 mm 4 m/s 746 mmHg 87%
    12:00 -12°C° 0.2 mm 4 m/s 746 mmHg 88%
    13:00 -12°C° 0.2 mm 4 m/s 745 mmHg 88%
    14:00 -11°C° 0.2 mm 4 m/s 745 mmHg 89%
    15:00 -11°C° 0.4 mm 4 m/s 745 mmHg 90%
    16:00 -11°C° 0.4 mm 4 m/s 745 mmHg 92%
    17:00 -11°C° 0.4 mm 4 m/s 745 mmHg 93%
    18:00 -10°C° 0.5 mm 3 m/s 745 mmHg 93%
    19:00 -10°C° 0.5 mm 3 m/s 745 mmHg 93%
    20:00 -10°C° 0.5 mm 3 m/s 745 mmHg 94%
    21:00 -10°C° 0.4 mm 3 m/s 745 mmHg 94%
    22:00 -9°C° 0.4 mm 2 m/s 745 mmHg 94%
    23:00 -9°C° 0.4 mm 2 m/s 745 mmHg 94%

    26 Janvier, Samedi

    Heure Température Précipitation Vent Pression Humidité
    00:00 -8°C° 0.2 mm 1 m/s 744 mmHg 94%
    01:00 -8°C° 0.2 mm 1 m/s 744 mmHg 94%
    02:00 -8°C° 0.2 mm 1 m/s 744 mmHg 95%
    03:00 -8°C° 0.1 mm 0 m/s 744 mmHg 95%
    04:00 -8°C° 0.1 mm 0 m/s 743 mmHg 95%
    05:00 -8°C° 0.1 mm 0 m/s 743 mmHg 96%
    06:00 -8°C° 0 mm 0 m/s 743 mmHg 95%
    07:00 -8°C° 0 mm 1 m/s 743 mmHg 95%
    08:00 -7°C° 0 mm 1 m/s 743 mmHg 94%
    09:00 -8°C° 0 mm 2 m/s 743 mmHg 93%
    10:00 -8°C° 0 mm 2 m/s 743 mmHg 91%
    11:00 -7°C° 0 mm 2 m/s 743 mmHg 90%
    12:00 -7°C° 0 mm 2 m/s 743 mmHg 89%
    13:00 -7°C° 0 mm 2 m/s 743 mmHg 88%
    14:00 -7°C° 0 mm 2 m/s 743 mmHg 87%
    15:00 -7°C° 0 mm 2 m/s 743 mmHg 88%
    16:00 -7°C° 0 mm 2 m/s 743 mmHg 90%
    17:00 -7°C° 0 mm 2 m/s 742 mmHg 91%
    18:00 -6°C° 0 mm 1 m/s 742 mmHg 92%
    19:00 -7°C° 0 mm 1 m/s 742 mmHg 94%
    20:00 -7°C° 0 mm 1 m/s 742 mmHg 95%
    21:00 -8°C° 0 mm 1 m/s 742 mmHg 95%
    22:00 -9°C° 0 mm 2 m/s 742 mmHg 95%
    23:00 -9°C° 0 mm 2 m/s 742 mmHg 96%

    27 Janvier, Dimanche

    Heure Température Précipitation Vent Pression Humidité
    00:00 -9°C° 0 mm 2 m/s 742 mmHg 95%
    01:00 -9°C° 0 mm 2 m/s 741 mmHg 95%
    02:00 -9°C° 0 mm 2 m/s 741 mmHg 95%
    03:00 -9°C° 0 mm 2 m/s 741 mmHg 94%
    04:00 -9°C° 0 mm 2 m/s 741 mmHg 94%
    05:00 -9°C° 0 mm 2 m/s 740 mmHg 94%
    06:00 -9°C° 0 mm 2 m/s 740 mmHg 93%
    07:00 -10°C° 0 mm 3 m/s 740 mmHg 93%
    08:00 -10°C° 0 mm 3 m/s 740 mmHg 93%
    09:00 -10°C° 0 mm 3 m/s 740 mmHg 92%
    10:00 -9°C° 0 mm 3 m/s 740 mmHg 91%
    11:00 -8°C° 0 mm 3 m/s 740 mmHg 90%
    12:00 -7°C° 0 mm 3 m/s 740 mmHg 90%
    13:00 -7°C° 0 mm 3 m/s 740 mmHg 90%
    14:00 -6°C° 0 mm 3 m/s 740 mmHg 89%
    15:00 -6°C° 0 mm 3 m/s 739 mmHg 91%
    16:00 -7°C° 0 mm 3 m/s 739 mmHg 93%
    17:00 -7°C° 0 mm 3 m/s 739 mmHg 94%
    18:00 -7°C° 0 mm 4 m/s 739 mmHg 95%
    19:00 -7°C° 0 mm 4 m/s 740 mmHg 95%
    20:00 -5°C° 0 mm 4 m/s 740 mmHg 95%
    21:00 -4°C° 0 mm 4 m/s 740 mmHg 95%
    22:00 -3°C° 0 mm 4 m/s 740 mmHg 95%
    23:00 -3°C° 0 mm 4 m/s 740 mmHg 94%

    28 Janvier, Lundi

    Heure Température Précipitation Vent Pression Humidité
    00:00 -2°C° 0 mm 4 m/s 740 mmHg 94%
    01:00 -2°C° 0 mm 4 m/s 740 mmHg 94%
    02:00 -2°C° 0 mm 4 m/s 740 mmHg 93%
    03:00 -2°C° 0 mm 4 m/s 740 mmHg 94%
    04:00 -2°C° 0 mm 4 m/s 740 mmHg 94%
    05:00 -3°C° 0 mm 4 m/s 740 mmHg 94%
    06:00 -3°C° 0 mm 4 m/s 741 mmHg 94%
    07:00 -2°C° 0 mm 3 m/s 741 mmHg 94%
    08:00 -2°C° 0 mm 3 m/s 741 mmHg 94%
    09:00 -2°C° 0 mm 3 m/s 742 mmHg 93%
    10:00 -1°C° 0 mm 3 m/s 742 mmHg 93%
    11:00 -1°C° 0 mm 3 m/s 742 mmHg 92%
    12:00 -1°C° 0 mm 3 m/s 742 mmHg 93%
    13:00 -1°C° 0 mm 3 m/s 742 mmHg 94%
    14:00 0°C° 0 mm 3 m/s 742 mmHg 94%
    15:00 -1°C° 0 mm 3 m/s 743 mmHg 95%
    16:00 -1°C° 0 mm 3 m/s 743 mmHg 95%
    17:00 -1°C° 0 mm 3 m/s 743 mmHg 95%
    18:00 -1°C° 0 mm 3 m/s 743 mmHg 95%
    19:00 -1°C° 0 mm 3 m/s 743 mmHg 95%
    20:00 -1°C° 0 mm 3 m/s 744 mmHg 95%
    21:00 -1°C° 0 mm 3 m/s 744 mmHg 95%
    22:00 -1°C° 0 mm 3 m/s 744 mmHg 95%
    23:00 -1°C° 0 mm 3 m/s 744 mmHg 95%
    Voir plus